Year,Month,Day,Hour,Minute,Value (Times are PST for temperature in C)
2010,08,15,00,00,18.90
2010,08,15,00,01,18.90
2010,08,15,00,02,19.00
2010,08,15,00,03,19.00
2010,08,15,00,04,19.00
2010,08,15,00,05,19.00
2010,08,15,00,06,19.00
2010,08,15,00,07,19.00
2010,08,15,00,08,19.00
2010,08,15,00,09,19.00
2010,08,15,00,10,19.00
2010,08,15,00,11,19.00
2010,08,15,00,12,19.00
2010,08,15,00,13,19.00
2010,08,15,00,14,19.00
2010,08,15,00,15,19.00
2010,08,15,00,16,19.00
2010,08,15,00,17,19.00
2010,08,15,00,18,19.00
2010,08,15,00,19,19.00
2010,08,15,00,20,19.00
2010,08,15,00,21,19.00
2010,08,15,00,22,18.90
2010,08,15,00,23,18.90
2010,08,15,00,24,18.90
2010,08,15,00,25,18.90
2010,08,15,00,26,18.90
2010,08,15,00,27,18.80
2010,08,15,00,28,18.80
2010,08,15,00,29,18.80
2010,08,15,00,30,18.80
2010,08,15,00,31,18.80
2010,08,15,00,32,18.80
2010,08,15,00,33,18.80
2010,08,15,00,34,18.80
2010,08,15,00,35,18.80
2010,08,15,00,36,18.80
2010,08,15,00,37,18.80
2010,08,15,00,38,18.80
2010,08,15,00,39,18.80
2010,08,15,00,40,18.70
2010,08,15,00,41,18.70
2010,08,15,00,42,18.70
2010,08,15,00,43,18.70
2010,08,15,00,44,18.70
2010,08,15,00,45,18.70
2010,08,15,00,46,18.70
2010,08,15,00,47,18.70
2010,08,15,00,48,18.70
2010,08,15,00,49,18.70
2010,08,15,00,50,18.70
2010,08,15,00,51,18.70
2010,08,15,00,52,18.60
2010,08,15,00,53,18.60
2010,08,15,00,54,18.60
2010,08,15,00,55,18.60
2010,08,15,00,56,18.60
2010,08,15,00,57,18.50
2010,08,15,00,58,18.50
2010,08,15,00,59,18.50
2010,08,15,01,00,18.40
2010,08,15,01,01,18.40
2010,08,15,01,02,18.40
2010,08,15,01,03,18.40
2010,08,15,01,04,18.30
2010,08,15,01,05,18.30
2010,08,15,01,06,18.30
2010,08,15,01,07,18.30
2010,08,15,01,08,18.30
2010,08,15,01,09,18.30
2010,08,15,01,10,18.30
2010,08,15,01,11,18.30
2010,08,15,01,12,18.30
2010,08,15,01,13,18.30
2010,08,15,01,14,18.30
2010,08,15,01,15,18.40
2010,08,15,01,16,18.40
2010,08,15,01,17,18.40
2010,08,15,01,18,18.40
2010,08,15,01,19,18.40
2010,08,15,01,20,18.40
2010,08,15,01,21,18.40
2010,08,15,01,22,18.40
2010,08,15,01,23,18.40
2010,08,15,01,24,18.40
2010,08,15,01,25,18.40
2010,08,15,01,26,18.40
2010,08,15,01,27,18.40
2010,08,15,01,28,18.30
2010,08,15,01,29,18.30
2010,08,15,01,30,18.30
2010,08,15,01,31,18.30
2010,08,15,01,32,18.30
2010,08,15,01,33,18.30
2010,08,15,01,34,18.20
2010,08,15,01,35,18.20
2010,08,15,01,36,18.20
2010,08,15,01,37,18.10
2010,08,15,01,38,18.00
2010,08,15,01,39,18.00
2010,08,15,01,40,17.90
2010,08,15,01,41,17.90
2010,08,15,01,42,17.80
2010,08,15,01,43,17.80
2010,08,15,01,44,17.80
2010,08,15,01,45,17.70
2010,08,15,01,46,17.70
2010,08,15,01,47,17.70
2010,08,15,01,48,17.70
2010,08,15,01,49,17.70
2010,08,15,01,50,17.70
2010,08,15,01,51,17.70
2010,08,15,01,52,17.70
2010,08,15,01,53,17.70
2010,08,15,01,54,17.70
2010,08,15,01,55,17.70
2010,08,15,01,56,17.70
2010,08,15,01,57,17.60
2010,08,15,01,58,17.60
2010,08,15,01,59,17.60
2010,08,15,02,00,17.60
2010,08,15,02,01,17.70
2010,08,15,02,02,17.70
2010,08,15,02,03,17.70
2010,08,15,02,04,17.70
2010,08,15,02,05,17.70
2010,08,15,02,06,17.80
2010,08,15,02,07,17.80
2010,08,15,02,08,17.80
2010,08,15,02,09,17.80
2010,08,15,02,10,17.80
2010,08,15,02,11,17.80
2010,08,15,02,12,17.80
2010,08,15,02,13,17.80
2010,08,15,02,14,17.80
2010,08,15,02,15,17.70
2010,08,15,02,16,17.70
2010,08,15,02,17,17.70
2010,08,15,02,18,17.60
2010,08,15,02,19,17.60
2010,08,15,02,20,17.60
2010,08,15,02,21,17.60
2010,08,15,02,22,17.50
2010,08,15,02,23,17.50
2010,08,15,02,24,17.40
2010,08,15,02,25,17.40
2010,08,15,02,26,17.40
2010,08,15,02,27,17.40
2010,08,15,02,28,17.30
2010,08,15,02,29,17.30
2010,08,15,02,30,17.30
2010,08,15,02,31,17.30
2010,08,15,02,32,17.20
2010,08,15,02,33,17.20
2010,08,15,02,34,17.20
2010,08,15,02,35,17.10
2010,08,15,02,36,17.10
2010,08,15,02,37,17.10
2010,08,15,02,38,17.00
2010,08,15,02,39,17.00
2010,08,15,02,40,17.00
2010,08,15,02,41,16.90
2010,08,15,02,42,16.90
2010,08,15,02,43,16.90
2010,08,15,02,44,16.90
2010,08,15,02,45,16.90
2010,08,15,02,46,16.90
2010,08,15,02,47,16.80
2010,08,15,02,48,16.80
2010,08,15,02,49,16.80
2010,08,15,02,50,16.70
2010,08,15,02,51,16.70
2010,08,15,02,52,16.70
2010,08,15,02,53,16.70
2010,08,15,02,54,16.60
2010,08,15,02,55,16.60
2010,08,15,02,56,16.60
2010,08,15,02,57,16.60
2010,08,15,02,58,16.60
2010,08,15,02,59,16.60
2010,08,15,03,00,16.60
2010,08,15,03,01,16.60
2010,08,15,03,02,16.50
2010,08,15,03,03,16.50
2010,08,15,03,04,16.50
2010,08,15,03,05,16.50
2010,08,15,03,06,16.50
2010,08,15,03,07,16.50
2010,08,15,03,08,16.50
2010,08,15,03,09,16.50
2010,08,15,03,10,16.40
2010,08,15,03,11,16.40
2010,08,15,03,12,16.40
2010,08,15,03,13,16.40
2010,08,15,03,14,16.40
2010,08,15,03,15,16.30
2010,08,15,03,16,16.30
2010,08,15,03,17,16.30
2010,08,15,03,18,16.30
2010,08,15,03,19,16.30
2010,08,15,03,20,16.30
2010,08,15,03,21,16.20
2010,08,15,03,22,16.20
2010,08,15,03,23,16.20
2010,08,15,03,24,16.20
2010,08,15,03,25,16.20
2010,08,15,03,26,16.20
2010,08,15,03,27,16.20
2010,08,15,03,28,16.20
2010,08,15,03,29,16.20
2010,08,15,03,30,16.20
2010,08,15,03,31,16.20
2010,08,15,03,32,16.20
2010,08,15,03,33,16.20
2010,08,15,03,34,16.20
2010,08,15,03,35,16.10
2010,08,15,03,36,16.10
2010,08,15,03,37,16.10
2010,08,15,03,38,16.10
2010,08,15,03,39,16.10
2010,08,15,03,40,16.10
2010,08,15,03,41,16.10
2010,08,15,03,42,16.10
2010,08,15,03,43,16.10
2010,08,15,03,44,16.10
2010,08,15,03,45,16.10
2010,08,15,03,49,16.10
2010,08,15,03,50,16.10
2010,08,15,03,51,16.20
2010,08,15,03,52,16.20
2010,08,15,03,53,16.20
2010,08,15,03,54,16.20
2010,08,15,03,55,16.10
2010,08,15,03,56,16.10
2010,08,15,03,57,16.10
2010,08,15,03,58,16.10
2010,08,15,03,59,16.10
2010,08,15,04,00,16.10
2010,08,15,04,01,16.10
2010,08,15,04,02,16.10
2010,08,15,04,03,16.10
2010,08,15,04,04,16.10
2010,08,15,04,05,16.10
2010,08,15,04,06,16.10
2010,08,15,04,07,16.10
2010,08,15,04,08,16.00
2010,08,15,04,09,16.00
2010,08,15,04,10,16.00
2010,08,15,04,11,15.90
2010,08,15,04,12,15.90
2010,08,15,04,13,15.90
2010,08,15,04,14,15.90
2010,08,15,04,15,15.90
2010,08,15,04,16,15.90
2010,08,15,04,17,15.90
2010,08,15,04,18,15.90
2010,08,15,04,19,15.90
2010,08,15,04,20,15.90
2010,08,15,04,21,15.90
2010,08,15,04,22,15.90
2010,08,15,04,23,15.90
2010,08,15,04,24,15.90
2010,08,15,04,25,15.90
2010,08,15,04,26,15.90
2010,08,15,04,27,15.90
2010,08,15,04,28,15.90
2010,08,15,04,29,15.90
2010,08,15,04,30,15.90
2010,08,15,04,31,15.90
2010,08,15,04,32,15.90
2010,08,15,04,33,15.90
2010,08,15,04,34,15.90
2010,08,15,04,35,15.90
2010,08,15,04,36,15.90
2010,08,15,04,37,15.90
2010,08,15,04,38,15.90
2010,08,15,04,39,15.90
2010,08,15,04,40,15.90
2010,08,15,04,41,15.90
2010,08,15,04,42,15.90
2010,08,15,04,43,16.00
2010,08,15,04,44,16.00
2010,08,15,04,45,16.00
2010,08,15,04,46,16.00
2010,08,15,04,47,16.00
2010,08,15,04,48,16.00
2010,08,15,04,49,16.00
2010,08,15,04,50,16.00
2010,08,15,04,51,16.00
2010,08,15,04,52,16.00
2010,08,15,04,53,16.00
2010,08,15,04,54,15.90
2010,08,15,04,55,15.90
2010,08,15,04,56,15.90
2010,08,15,04,57,15.90
2010,08,15,04,58,15.90
2010,08,15,04,59,15.80
2010,08,15,05,00,15.80
2010,08,15,05,01,15.80
2010,08,15,05,02,15.80
2010,08,15,05,03,15.80
2010,08,15,05,04,15.80
2010,08,15,05,05,15.80
2010,08,15,05,06,15.70
2010,08,15,05,07,15.70
2010,08,15,05,08,15.70
2010,08,15,05,09,15.70
2010,08,15,05,10,15.70
2010,08,15,05,11,15.60
2010,08,15,05,12,15.60
2010,08,15,05,13,15.60
2010,08,15,05,14,15.60
2010,08,15,05,15,15.60
2010,08,15,05,16,15.60
2010,08,15,05,17,15.60
2010,08,15,05,18,15.60
2010,08,15,05,19,15.60
2010,08,15,05,20,15.60
2010,08,15,05,21,15.60
2010,08,15,05,22,15.60
2010,08,15,05,23,15.60
2010,08,15,05,24,15.60
2010,08,15,05,25,15.60
2010,08,15,05,26,15.60
2010,08,15,05,27,15.60
2010,08,15,05,28,15.60
2010,08,15,05,29,15.60
2010,08,15,05,30,15.60
2010,08,15,05,31,15.50
2010,08,15,05,32,15.50
2010,08,15,05,33,15.50
2010,08,15,05,34,15.50
2010,08,15,05,35,15.50
2010,08,15,05,36,15.40
2010,08,15,05,37,15.40
2010,08,15,05,38,15.40
2010,08,15,05,39,15.40
2010,08,15,05,40,15.40
2010,08,15,05,41,15.40
2010,08,15,05,42,15.40
2010,08,15,05,43,15.40
2010,08,15,05,44,15.40
2010,08,15,05,45,15.40
2010,08,15,05,46,15.40
2010,08,15,05,47,15.40
2010,08,15,05,48,15.40
2010,08,15,05,49,15.40
2010,08,15,05,50,15.50
2010,08,15,05,51,15.50
2010,08,15,05,52,15.50
2010,08,15,05,53,15.50
2010,08,15,05,54,15.50
2010,08,15,05,55,15.50
2010,08,15,05,56,15.50
2010,08,15,05,57,15.50
2010,08,15,05,58,15.40
2010,08,15,05,59,15.40
2010,08,15,06,00,15.40
2010,08,15,06,01,15.40
2010,08,15,06,02,15.40
2010,08,15,06,03,15.40
2010,08,15,06,04,15.40
2010,08,15,06,05,15.40
2010,08,15,06,06,15.30
2010,08,15,06,07,15.30
2010,08,15,06,08,15.30
2010,08,15,06,09,15.30
2010,08,15,06,10,15.30
2010,08,15,06,11,15.30
2010,08,15,06,12,15.20
2010,08,15,06,13,15.20
2010,08,15,06,14,15.20
2010,08,15,06,15,15.20
2010,08,15,06,16,15.10
2010,08,15,06,17,15.10
2010,08,15,06,18,15.10
2010,08,15,06,19,15.00
2010,08,15,06,20,15.00
2010,08,15,06,21,15.00
2010,08,15,06,22,15.00
2010,08,15,06,23,15.00
2010,08,15,06,24,15.00
2010,08,15,06,25,15.00
2010,08,15,06,26,15.00
2010,08,15,06,27,15.00
2010,08,15,06,28,15.00
2010,08,15,06,29,15.00
2010,08,15,06,30,15.10
2010,08,15,06,31,15.10
2010,08,15,06,32,15.10
2010,08,15,06,33,15.10
2010,08,15,06,34,15.10
2010,08,15,06,35,15.10
2010,08,15,06,36,15.10
2010,08,15,06,37,15.10
2010,08,15,06,38,15.10
2010,08,15,06,39,15.10
2010,08,15,06,40,15.10
2010,08,15,06,41,15.10
2010,08,15,06,42,15.20
2010,08,15,06,43,15.20
2010,08,15,06,44,15.20
2010,08,15,06,45,15.20
2010,08,15,06,46,15.30
2010,08,15,06,47,15.30
2010,08,15,06,48,15.30
2010,08,15,06,49,15.30
2010,08,15,06,50,15.30
2010,08,15,06,51,15.30
2010,08,15,06,52,15.40
2010,08,15,06,53,15.30
2010,08,15,06,54,15.40
2010,08,15,06,55,15.40
2010,08,15,06,56,15.40
2010,08,15,06,57,15.50
2010,08,15,06,58,15.50
2010,08,15,06,59,15.60
2010,08,15,07,00,15.60
2010,08,15,07,01,15.70
2010,08,15,07,02,15.70
2010,08,15,07,03,15.80
2010,08,15,07,04,15.90
2010,08,15,07,05,15.90
2010,08,15,07,06,16.00
2010,08,15,07,07,16.10
2010,08,15,07,08,16.10
2010,08,15,07,09,16.20
2010,08,15,07,10,16.20
2010,08,15,07,11,16.30
2010,08,15,07,12,16.40
2010,08,15,07,13,16.50
2010,08,15,07,14,16.50
2010,08,15,07,15,16.60
2010,08,15,07,16,16.70
2010,08,15,07,17,16.70
2010,08,15,07,18,16.80
2010,08,15,07,19,16.90
2010,08,15,07,20,16.90
2010,08,15,07,21,17.00
2010,08,15,07,22,17.00
2010,08,15,07,23,17.10
2010,08,15,07,24,17.10
2010,08,15,07,25,17.10
2010,08,15,07,26,17.20
2010,08,15,07,27,17.20
2010,08,15,07,28,17.20
2010,08,15,07,29,17.30
2010,08,15,07,30,17.30
2010,08,15,07,31,17.30
2010,08,15,07,32,17.40
2010,08,15,07,33,17.50
2010,08,15,07,34,17.60
2010,08,15,07,35,17.70
2010,08,15,07,36,17.90
2010,08,15,07,37,18.00
2010,08,15,07,38,18.10
2010,08,15,07,39,18.30
2010,08,15,07,40,18.40
2010,08,15,07,41,18.60
2010,08,15,07,42,18.80
2010,08,15,07,43,18.90
2010,08,15,07,44,19.00
2010,08,15,07,45,19.20
2010,08,15,07,46,19.30
2010,08,15,07,47,19.40
2010,08,15,07,48,19.50
2010,08,15,07,49,19.70
2010,08,15,07,50,19.70
2010,08,15,07,51,19.80
2010,08,15,07,52,19.90
2010,08,15,07,53,19.90
2010,08,15,07,54,20.00
2010,08,15,07,55,20.10
2010,08,15,07,56,20.20
2010,08,15,07,57,20.20
2010,08,15,07,58,20.40
2010,08,15,07,59,20.50
2010,08,15,08,00,20.60
2010,08,15,08,01,20.70
2010,08,15,08,02,20.70
2010,08,15,08,03,20.80
2010,08,15,08,04,20.80
2010,08,15,08,05,20.90
2010,08,15,08,06,20.90
2010,08,15,08,07,20.90
2010,08,15,08,08,20.90
2010,08,15,08,09,21.00
2010,08,15,08,10,21.10
2010,08,15,08,11,21.10
2010,08,15,08,12,21.20
2010,08,15,08,13,21.20
2010,08,15,08,14,21.30
2010,08,15,08,15,21.40
2010,08,15,08,16,21.50
2010,08,15,08,17,21.60
2010,08,15,08,18,21.70
2010,08,15,08,19,21.80
2010,08,15,08,20,21.90
2010,08,15,08,21,22.10
2010,08,15,08,22,22.20
2010,08,15,08,23,22.30
2010,08,15,08,24,22.50
2010,08,15,08,25,22.60
2010,08,15,08,26,22.70
2010,08,15,08,27,22.80
2010,08,15,08,28,22.90
2010,08,15,08,29,23.00
2010,08,15,08,30,23.10
2010,08,15,08,31,23.20
2010,08,15,08,32,23.40
2010,08,15,08,33,23.50
2010,08,15,08,34,23.60
2010,08,15,08,35,23.60
2010,08,15,08,36,23.70
2010,08,15,08,37,23.70
2010,08,15,08,38,23.70
2010,08,15,08,39,23.80
2010,08,15,08,40,23.90
2010,08,15,08,41,24.00
2010,08,15,08,42,24.20
2010,08,15,08,43,24.30
2010,08,15,08,44,24.40
2010,08,15,08,45,24.60
2010,08,15,08,46,24.70
2010,08,15,08,47,24.90
2010,08,15,08,48,25.00
2010,08,15,08,49,25.10
2010,08,15,08,50,25.20
2010,08,15,08,51,25.20
2010,08,15,08,52,25.30
2010,08,15,08,53,25.30
2010,08,15,08,54,25.30
2010,08,15,08,55,25.20
2010,08,15,08,56,25.20
2010,08,15,08,57,25.10
2010,08,15,08,58,25.10
2010,08,15,08,59,25.00
2010,08,15,09,00,25.00
2010,08,15,09,01,25.00
2010,08,15,09,02,25.00
2010,08,15,09,03,25.00
2010,08,15,09,04,25.10
2010,08,15,09,05,25.10
2010,08,15,09,06,25.20
2010,08,15,09,07,25.20
2010,08,15,09,08,25.40
2010,08,15,09,09,25.40
2010,08,15,09,10,25.40
2010,08,15,09,11,25.50
2010,08,15,09,12,25.50
2010,08,15,09,13,25.60
2010,08,15,09,14,25.60
2010,08,15,09,15,25.70
2010,08,15,09,16,25.80
2010,08,15,09,17,25.80
2010,08,15,09,18,25.80
2010,08,15,09,19,25.90
2010,08,15,09,20,25.90
2010,08,15,09,21,25.90
2010,08,15,09,22,25.90
2010,08,15,09,23,26.00
2010,08,15,09,24,26.10
2010,08,15,09,25,26.20
2010,08,15,09,26,26.30
2010,08,15,09,27,26.40
2010,08,15,09,28,26.40
2010,08,15,09,29,26.40
2010,08,15,09,30,26.40
2010,08,15,09,31,26.30
2010,08,15,09,32,26.30
2010,08,15,09,33,26.30
2010,08,15,09,34,26.30
2010,08,15,09,35,26.30
2010,08,15,09,36,26.30
2010,08,15,09,37,26.40
2010,08,15,09,38,26.40
2010,08,15,09,39,26.40
2010,08,15,09,40,26.40
2010,08,15,09,41,26.50
2010,08,15,09,42,26.50
2010,08,15,09,43,26.50
2010,08,15,09,44,26.60
2010,08,15,09,45,26.70
2010,08,15,09,46,26.80
2010,08,15,09,47,26.90
2010,08,15,09,48,26.90
2010,08,15,09,49,27.00
2010,08,15,09,50,27.10
2010,08,15,09,51,27.00
2010,08,15,09,52,27.00
2010,08,15,09,53,26.90
2010,08,15,09,54,26.80
2010,08,15,09,55,26.80
2010,08,15,09,56,26.80
2010,08,15,09,57,26.80
2010,08,15,09,58,26.80
2010,08,15,09,59,26.80
2010,08,15,10,00,26.70
2010,08,15,10,01,26.70
2010,08,15,10,02,26.60
2010,08,15,10,03,26.60
2010,08,15,10,04,26.70
2010,08,15,10,05,26.80
2010,08,15,10,06,27.00
2010,08,15,10,07,27.10
2010,08,15,10,08,27.30
2010,08,15,10,09,27.30
2010,08,15,10,10,27.40
2010,08,15,10,11,27.40
2010,08,15,10,12,27.30
2010,08,15,10,13,27.30
2010,08,15,10,14,27.20
2010,08,15,10,15,27.20
2010,08,15,10,16,27.20
2010,08,15,10,17,27.10
2010,08,15,10,18,27.10
2010,08,15,10,19,27.10
2010,08,15,10,20,27.20
2010,08,15,10,21,27.20
2010,08,15,10,22,27.10
2010,08,15,10,23,27.00
2010,08,15,10,24,26.90
2010,08,15,10,25,26.80
2010,08,15,10,26,26.80
2010,08,15,10,27,26.70
2010,08,15,10,28,26.70
2010,08,15,10,29,26.70
2010,08,15,10,30,26.80
2010,08,15,10,31,26.80
2010,08,15,10,32,27.00
2010,08,15,10,33,27.10
2010,08,15,10,34,27.10
2010,08,15,10,35,27.20
2010,08,15,10,36,27.20
2010,08,15,10,37,27.20
2010,08,15,10,38,27.20
2010,08,15,10,39,27.30
2010,08,15,10,40,27.40
2010,08,15,10,41,27.60
2010,08,15,10,42,27.70
2010,08,15,10,43,27.80
2010,08,15,10,44,27.90
2010,08,15,10,45,28.00
2010,08,15,10,46,28.10
2010,08,15,10,47,28.20
2010,08,15,10,48,28.40
2010,08,15,10,49,28.50
2010,08,15,10,50,28.60
2010,08,15,10,51,28.60
2010,08,15,10,52,28.60
2010,08,15,10,53,28.50
2010,08,15,10,54,28.40
2010,08,15,10,55,28.30
2010,08,15,10,56,28.30
2010,08,15,10,57,28.30
2010,08,15,10,58,28.30
2010,08,15,10,59,28.50
2010,08,15,11,00,28.70
2010,08,15,11,01,28.80
2010,08,15,11,02,28.90
2010,08,15,11,03,29.10
2010,08,15,11,04,29.20
2010,08,15,11,05,29.30
2010,08,15,11,06,29.30
2010,08,15,11,07,29.20
2010,08,15,11,08,29.10
2010,08,15,11,09,29.00
2010,08,15,11,10,28.90
2010,08,15,11,11,28.90
2010,08,15,11,12,29.00
2010,08,15,11,13,29.00
2010,08,15,11,14,29.00
2010,08,15,11,15,29.10
2010,08,15,11,16,29.00
2010,08,15,11,17,28.90
2010,08,15,11,18,28.90
2010,08,15,11,19,28.90
2010,08,15,11,20,28.90
2010,08,15,11,21,28.90
2010,08,15,11,22,28.90
2010,08,15,11,23,28.90
2010,08,15,11,24,28.90
2010,08,15,11,25,28.90
2010,08,15,11,26,29.00
2010,08,15,11,27,29.10
2010,08,15,11,28,29.20
2010,08,15,11,29,29.30
2010,08,15,11,30,29.40
2010,08,15,11,31,29.50
2010,08,15,11,32,29.50
2010,08,15,11,33,29.50
2010,08,15,11,34,29.40
2010,08,15,11,35,29.50
2010,08,15,11,36,29.60
2010,08,15,11,37,29.80
2010,08,15,11,38,29.90
2010,08,15,11,39,29.90
2010,08,15,11,40,30.00
2010,08,15,11,41,30.00
2010,08,15,11,42,30.10
2010,08,15,11,43,30.10
2010,08,15,11,44,30.20
2010,08,15,11,45,30.10
2010,08,15,11,46,30.10
2010,08,15,11,47,30.10
2010,08,15,11,48,30.10
2010,08,15,11,49,30.10
2010,08,15,11,50,30.10
2010,08,15,11,51,30.10
2010,08,15,11,52,30.10
2010,08,15,11,53,30.10
2010,08,15,11,54,30.10
2010,08,15,11,55,30.20
2010,08,15,11,56,30.20
2010,08,15,11,57,30.30
2010,08,15,11,58,30.30
2010,08,15,11,59,30.30
2010,08,15,12,00,30.30
2010,08,15,12,01,30.20
2010,08,15,12,02,30.30
2010,08,15,12,03,30.30
2010,08,15,12,04,30.30
2010,08,15,12,05,30.30
2010,08,15,12,06,30.20
2010,08,15,12,07,30.10
2010,08,15,12,08,30.00
2010,08,15,12,09,29.90
2010,08,15,12,10,29.90
2010,08,15,12,11,29.80
2010,08,15,12,12,29.80
2010,08,15,12,13,29.80
2010,08,15,12,14,29.90
2010,08,15,12,15,30.00
2010,08,15,12,16,30.10
2010,08,15,12,17,30.20
2010,08,15,12,18,30.40
2010,08,15,12,19,30.40
2010,08,15,12,20,30.50
2010,08,15,12,21,30.50
2010,08,15,12,22,30.60
2010,08,15,12,23,30.60
2010,08,15,12,24,30.70
2010,08,15,12,25,30.70
2010,08,15,12,26,30.70
2010,08,15,12,27,30.80
2010,08,15,12,28,30.80
2010,08,15,12,29,30.70
2010,08,15,12,30,30.60
2010,08,15,12,31,30.50
2010,08,15,12,32,30.50
2010,08,15,12,33,30.40
2010,08,15,12,34,30.40
2010,08,15,12,35,30.50
2010,08,15,12,36,30.40
2010,08,15,12,37,30.50
2010,08,15,12,38,30.60
2010,08,15,12,39,30.60
2010,08,15,12,40,30.60
2010,08,15,12,41,30.70
2010,08,15,12,42,30.80
2010,08,15,12,43,30.90
2010,08,15,12,44,30.90
2010,08,15,12,45,30.80
2010,08,15,12,46,30.80
2010,08,15,12,47,30.70
2010,08,15,12,48,30.60
2010,08,15,12,49,30.60
2010,08,15,12,50,30.60
2010,08,15,12,51,30.60
2010,08,15,12,52,30.70
2010,08,15,12,53,30.70
2010,08,15,12,54,30.80
2010,08,15,12,55,30.90
2010,08,15,12,56,31.00
2010,08,15,12,57,31.10
2010,08,15,12,58,31.20
2010,08,15,12,59,31.20
2010,08,15,13,00,31.20
2010,08,15,13,01,31.10
2010,08,15,13,02,31.10
2010,08,15,13,03,31.10
2010,08,15,13,04,31.00
2010,08,15,13,05,31.00
2010,08,15,13,06,31.10
2010,08,15,13,07,31.10
2010,08,15,13,08,31.10
2010,08,15,13,09,31.10
2010,08,15,13,10,31.20
2010,08,15,13,11,31.10
2010,08,15,13,12,31.10
2010,08,15,13,13,31.20
2010,08,15,13,14,31.20
2010,08,15,13,15,31.30
2010,08,15,13,16,31.20
2010,08,15,13,17,31.10
2010,08,15,13,18,31.00
2010,08,15,13,19,30.90
2010,08,15,13,20,30.80
2010,08,15,13,21,30.80
2010,08,15,13,22,30.70
2010,08,15,13,23,30.70
2010,08,15,13,24,30.60
2010,08,15,13,25,30.60
2010,08,15,13,26,30.60
2010,08,15,13,27,30.60
2010,08,15,13,28,30.70
2010,08,15,13,29,30.80
2010,08,15,13,30,30.90
2010,08,15,13,31,31.00
2010,08,15,13,32,31.20
2010,08,15,13,33,31.30
2010,08,15,13,34,31.30
2010,08,15,13,35,31.20
2010,08,15,13,36,31.10
2010,08,15,13,37,31.10
2010,08,15,13,38,31.20
2010,08,15,13,39,31.30
2010,08,15,13,40,31.30
2010,08,15,13,41,31.40
2010,08,15,13,42,31.40
2010,08,15,13,43,31.30
2010,08,15,13,44,31.40
2010,08,15,13,45,31.40
2010,08,15,13,46,31.50
2010,08,15,13,47,31.60
2010,08,15,13,48,31.70
2010,08,15,13,49,31.80
2010,08,15,13,50,31.80
2010,08,15,13,51,31.80
2010,08,15,13,52,31.80
2010,08,15,13,53,31.80
2010,08,15,13,54,31.80
2010,08,15,13,55,31.90
2010,08,15,13,56,31.90
2010,08,15,13,57,32.00
2010,08,15,13,58,32.00
2010,08,15,13,59,32.10
2010,08,15,14,00,32.10
2010,08,15,14,01,32.10
2010,08,15,14,02,32.20
2010,08,15,14,03,32.20
2010,08,15,14,04,32.30
2010,08,15,14,05,32.40
2010,08,15,14,06,32.50
2010,08,15,14,07,32.50
2010,08,15,14,08,32.60
2010,08,15,14,09,32.70
2010,08,15,14,10,32.70
2010,08,15,14,11,32.80
2010,08,15,14,12,32.80
2010,08,15,14,13,32.90
2010,08,15,14,14,33.00
2010,08,15,14,15,33.00
2010,08,15,14,16,33.00
2010,08,15,14,17,33.00
2010,08,15,14,18,33.00
2010,08,15,14,19,32.90
2010,08,15,14,20,32.90
2010,08,15,14,21,32.90
2010,08,15,14,22,32.90
2010,08,15,14,23,32.80
2010,08,15,14,24,32.80
2010,08,15,14,25,32.70
2010,08,15,14,26,32.70
2010,08,15,14,27,32.60
2010,08,15,14,28,32.60
2010,08,15,14,29,32.60
2010,08,15,14,30,32.60
2010,08,15,14,31,32.50
2010,08,15,14,32,32.60
2010,08,15,14,33,32.60
2010,08,15,14,34,32.60
2010,08,15,14,35,32.60
2010,08,15,14,36,32.60
2010,08,15,14,37,32.60
2010,08,15,14,38,32.60
2010,08,15,14,39,32.60
2010,08,15,14,40,32.60
2010,08,15,14,41,32.60
2010,08,15,14,42,32.70
2010,08,15,14,43,32.70
2010,08,15,14,44,32.70
2010,08,15,14,45,32.70
2010,08,15,14,46,32.70
2010,08,15,14,47,32.50
2010,08,15,14,48,32.50
2010,08,15,14,49,32.50
2010,08,15,14,50,32.50
2010,08,15,14,51,32.50
2010,08,15,14,52,32.50
2010,08,15,14,53,32.50
2010,08,15,14,54,32.30
2010,08,15,14,55,32.20
2010,08,15,14,56,32.10
2010,08,15,14,57,32.10
2010,08,15,14,58,32.10
2010,08,15,14,59,32.20
2010,08,15,15,00,32.30
2010,08,15,15,01,32.40
2010,08,15,15,02,32.30
2010,08,15,15,03,32.40
2010,08,15,15,04,32.50
2010,08,15,15,05,32.50
2010,08,15,15,06,32.50
2010,08,15,15,07,32.50
2010,08,15,15,08,32.60
2010,08,15,15,09,32.80
2010,08,15,15,10,32.90
2010,08,15,15,11,33.00
2010,08,15,15,12,33.10
2010,08,15,15,13,33.10
2010,08,15,15,14,33.20
2010,08,15,15,15,33.20
2010,08,15,15,16,33.20
2010,08,15,15,17,33.20
2010,08,15,15,18,33.10
2010,08,15,15,19,33.10
2010,08,15,15,20,33.20
2010,08,15,15,21,33.20
2010,08,15,15,22,33.20
2010,08,15,15,23,33.10
2010,08,15,15,24,33.10
2010,08,15,15,25,33.20
2010,08,15,15,26,33.20
2010,08,15,15,27,33.20
2010,08,15,15,28,33.20
2010,08,15,15,29,33.20
2010,08,15,15,30,33.20
2010,08,15,15,31,33.10
2010,08,15,15,32,33.10
2010,08,15,15,33,33.10
2010,08,15,15,34,33.00
2010,08,15,15,35,32.90
2010,08,15,15,36,33.00
2010,08,15,15,37,33.00
2010,08,15,15,38,33.00
2010,08,15,15,39,32.90
2010,08,15,15,40,32.90
2010,08,15,15,41,32.90
2010,08,15,15,42,32.90
2010,08,15,15,43,32.90
2010,08,15,15,44,32.90
2010,08,15,15,45,32.90
2010,08,15,15,46,32.90
2010,08,15,15,47,33.00
2010,08,15,15,48,33.10
2010,08,15,15,49,33.20
2010,08,15,15,50,33.20
2010,08,15,15,51,33.20
2010,08,15,15,52,33.20
2010,08,15,15,53,33.00
2010,08,15,15,54,32.90
2010,08,15,15,55,32.90
2010,08,15,15,56,32.90
2010,08,15,15,57,33.00
2010,08,15,15,58,33.10
2010,08,15,15,59,33.20
2010,08,15,16,00,33.20
2010,08,15,16,01,33.30
2010,08,15,16,02,33.30
2010,08,15,16,03,33.40
2010,08,15,16,04,33.40
2010,08,15,16,05,33.40
2010,08,15,16,06,33.40
2010,08,15,16,07,33.50
2010,08,15,16,08,33.50
2010,08,15,16,09,33.50
2010,08,15,16,10,33.50
2010,08,15,16,11,33.40
2010,08,15,16,12,33.40
2010,08,15,16,13,33.30
2010,08,15,16,14,33.30
2010,08,15,16,15,33.30
2010,08,15,16,16,33.40
2010,08,15,16,17,33.30
2010,08,15,16,18,33.30
2010,08,15,16,19,33.30
2010,08,15,16,20,33.30
2010,08,15,16,21,33.30
2010,08,15,16,22,33.30
2010,08,15,16,23,33.30
2010,08,15,16,24,33.30
2010,08,15,16,25,33.30
2010,08,15,16,26,33.30
2010,08,15,16,27,33.30
2010,08,15,16,28,33.30
2010,08,15,16,29,33.30
2010,08,15,16,30,33.20
2010,08,15,16,31,33.20
2010,08,15,16,32,33.20
2010,08,15,16,33,33.20
2010,08,15,16,34,33.30
2010,08,15,16,35,33.30
2010,08,15,16,36,33.30
2010,08,15,16,37,33.40
2010,08,15,16,38,33.40
2010,08,15,16,39,33.50
2010,08,15,16,40,33.50
2010,08,15,16,41,33.50
2010,08,15,16,42,33.60
2010,08,15,16,43,33.60
2010,08,15,16,44,33.60
2010,08,15,16,45,33.60
2010,08,15,16,46,33.50
2010,08,15,16,47,33.50
2010,08,15,16,48,33.50
2010,08,15,16,49,33.40
2010,08,15,16,50,33.30
2010,08,15,16,51,33.20
2010,08,15,16,52,33.10
2010,08,15,16,53,33.00
2010,08,15,16,54,32.90
2010,08,15,16,55,32.80
2010,08,15,16,56,32.80
2010,08,15,16,57,32.80
2010,08,15,16,58,32.80
2010,08,15,16,59,32.80
2010,08,15,17,00,32.90
2010,08,15,17,01,32.90
2010,08,15,17,02,32.90
2010,08,15,17,03,32.90
2010,08,15,17,04,32.90
2010,08,15,17,05,32.90
2010,08,15,17,06,32.90
2010,08,15,17,07,32.90
2010,08,15,17,08,33.00
2010,08,15,17,09,32.90
2010,08,15,17,10,32.90
2010,08,15,17,11,32.90
2010,08,15,17,12,32.90
2010,08,15,17,13,32.90
2010,08,15,17,14,32.90
2010,08,15,17,15,32.80
2010,08,15,17,16,32.80
2010,08,15,17,17,32.80
2010,08,15,17,18,32.70
2010,08,15,17,19,32.70
2010,08,15,17,20,32.70
2010,08,15,17,21,32.70
2010,08,15,17,22,32.70